Regional Weather Roundup
Issued by NWS

Home | Current Version | Previous Version | Graphics & Text | Print | Product List | Glossary On
Versions: 1 2 3 4 5 6 7 8 9 10 11 12 13 14 15 16 17 18 19 20 21 22 23 24 25 26 27 28 29 30 31 32 33 34 35 36 37 38 39 40 41 42 43 44 45 46 47 48 49 50
000
ASUS43 KMKX 260038
RWRWI

WISCONSIN REGIONAL WEATHER ROUNDUP
NATIONAL WEATHER SERVICE MILWAUKEE/SULLIVAN WI
800 PM CDT MON MAY 25 2015

NOTE: "FAIR" INDICATES FEW OR NO CLOUDS BELOW 12,000 FEET WITH NO
SIGNIFICANT WEATHER AND/OR OBSTRUCTIONS TO VISIBILITY.

WIZ001-002-006>008-014>016-023>028-260200-
NORTHWEST WISCONSIN

CITY           SKY/WX    TMP DP  RH WIND       PRES   REMARKS
SUPERIOR ARPT  DRIZZLE   45  44  99 NE5       29.75R
ASHLAND        CLOUDY    54  53  97 N7        29.74R
HAYWARD        CLOUDY    65  56  72 S7        29.73F
SIREN          CLOUDY    67  58  73 SW6       29.73R
CUMBERLAND     MOCLDY    64  55  72 SW10      29.74R
RICE LAKE      MOCLDY    67  57  70 SW3       29.76R
CHETEK         MOCLDY    67  61  81 CALM      29.75R
LADYSMITH      PTCLDY    68  59  74 SW7       29.77S
EAU CLAIRE     TSTM      66  62  87 SW6       29.75R
MENOMONIE      CLOUDY    71  59  66 SW8       29.74F
NEW RICHMOND   MOCLDY    70  57  64 SW10G20   29.74S
OSCEOLA        CLOUDY    70  59  68 SW8       29.76S
$$

WIZ003>005-009-010-017-018-260200-
NORTH CENTRAL WISCONSIN

CITY           SKY/WX    TMP DP  RH WIND       PRES   REMARKS
MANITOWISH WTR CLOUDY    64  58  80 W13G20    29.75S
ARBOR VITAE    PTCLDY    67  59  75 W8        29.76S
WOODRUFF       PTCLDY    67  59  75 W8        29.76S
RHINELANDER    PTCLDY    69  57  65 W17G28    29.76F
EAGLE RIVER    MOCLDY    67  57  71 W8        29.75S
LAND O LAKES   CLOUDY    66  58  77 W7        29.76S
PHILLIPS       PTCLDY    66  58  75 SW5       29.75F
TOMAHAWK       MOCLDY    68  57  67 W7        29.77S
MEDFORD        DRIZZLE   67  60  76 SW5       29.77S
MERRILL        MOCLDY    70  61  74 SW7       29.78S
$$

WIZ029-030-035-036-043>047-260200-
CENTRAL WISCONSIN

CITY           SKY/WX    TMP DP  RH WIND       PRES   REMARKS
WAUSAU         PTCLDY    71  60  68 SW7       29.76R
MOSINEE        MOCLDY    72  63  73 SW18      29.80R
MARSHFIELD     CLOUDY    70  59  68 SW12      29.79R
STEVENS POINT  CLOUDY    64  61  92 SW6       29.80R
WAUPACA        PTCLDY    72  65  79 SW8       29.79R
WAUTOMA        MOCLDY    73  64  73 SW8       29.80R
WISC RAPIDS    RAIN      66  60  81 W13       29.81F
CAMP DOUGLAS   MOCLDY    70  66  88 NW5       29.79S
$$

WIZ011>013-019>022-031-037>040-048>050-260200-
NORTHEAST WISCONSIN

CITY           SKY/WX    TMP DP  RH WIND       PRES   REMARKS
ANTIGO         MOCLDY    67  61  79 W6        29.79R
SHAWANO        PTCLDY    76  60  56 SW7G16    29.77R
OCONTO         MOCLDY    75  62  63 SW6       29.76S
STURGEON BAY   PTCLDY    73  61  64 SW13      29.80R
GREEN BAY      MOCLDY    75  63  66 SW12      29.78R
MANITOWOC      CLEAR     76  62  62 SW13      29.81R
APPLETON       MOCLDY    73  61  64 SW15      29.80R
CLINTONVILLE   MOCLDY    73  59  60 SW10      29.77R
OSHKOSH        MOCLDY    76  61  59 SW13      29.80R
$$

WIZ032>034-041-042-053>061-260200-
SOUTHWEST WISCONSIN

CITY           SKY/WX    TMP DP  RH WIND       PRES   REMARKS
LA CROSSE      PTCLDY    74  63  68 SW5       29.76F
SPARTA         PTCLDY    68  60  76 CALM      29.79F
VIROQUA        CLEAR     75  59  58 SW15      29.81S
BOSCOBEL       PTCLDY    79  61  53 SW12G22   29.80F HX  80
PRAIRIE DU CHI PTCLDY    76  59  55 S7        29.79F
PLATTEVILLE    PTCLDY    75  64  68 S14       29.85F
$$

WIZ056-057-062-063-064-067-068-260200-
SOUTH CENTRAL WISCONSIN

CITY           SKY/WX    TMP DP  RH WIND       PRES   REMARKS
REEDSBURG      PTCLDY    75  62  62 SW10      29.80F
BARABOO/DELLS  PTCLDY    75  59  57 SW13      29.81F
LONE ROCK      PTCLDY    76  61  59 SW10      29.82S
MINERAL POINT  PTCLDY    75  61  60 SW13G22   29.85S
MADISON        MOCLDY    76  60  57 SW9       29.84S
MIDDLETON      MOCLDY    77  58  52 SW12      29.85S
WATERTOWN      PTCLDY    75  61  60 SW17      29.84F
MONROE         MOCLDY    75  61  60 S20G26    29.86F
JANESVILLE     PTCLDY    79  61  53 SW17G25   29.86F HX  80
$$

WIZ051-052-058>065-066-070>072-260200-
SOUTHEAST WISCONSIN

CITY           SKY/WX    TMP DP  RH WIND       PRES   REMARKS
MILWAUKEE      MOCLDY    76  60  57 SW21G28   29.87R
WAUKESHA       PTCLDY    73  59  60 SW12G25   29.89R
MILWAUKEE/TIMM MOCLDY    77  57  50 SW14G28   29.87R
RACINE         PTCLDY    77  60  55 SW20G28   29.90R
BURLINGTON     CLEAR     75  60  60 SW17      29.88F
KENOSHA        PTCLDY    77  61  57 SW15      29.89S
FOND DU LAC    CLEAR     76  60  57 SW15G25   29.82R
SHEBOYGAN      PTCLDY    76  61  59 SW14G24   29.83R
WEST BEND      CLEAR     77  57  50 SW20G26   29.85S
JUNEAU         PTCLDY    75  61  62 S18G24    29.85S
$$

LSZ147-162-260200-
LAKE SUPERIOR

STATION/POSITION TIME  TEMP    WIND        PRES    WAVE
                       AIR SEA DIR/SP/G            HT/PER
                 (UTC) (F)     (DEG/KT/KT) (MB)    (FT/S)
W MID LAKE BUOY  2350   40 36   30/ 10/ 12 1071.0R   3/ 5
DEVILS ISLAND    0000   43     100/  5/  6 1078.0R
PORT WING        2340   44     340/  1/  2 1075.0S
SAXON HARBOR     2200   48        CALM     1061.0
$$

LMZ867-665-643>646-260200-
LAKE MICHIGAN

STATION/POSITION TIME  TEMP    WIND        PRES    WAVE
                       AIR SEA DIR/SP/G            HT/PER
                 (UTC) (F)     (DEG/KT/KT) (MB)    (FT/S)
CHAMBERS ISLAND  2300   71     200/  3/ 10 1075.0R
N MID LAKE BUOY  2350   42 37  200/ 16/ 17 1080.0R   4/ 5
NORTHPORT PIER   2300   58     150/  7/  8 1075.0S
SISTER BAY       2317   72     230/ 12/ 18   N/A
KEWAUNEE LAKESHO 2300          250/ 13/ 17 1077.0F
SHEBOYGAN LAKESH 0000   71     190/ 15/ 17   N/A
PORT WASHINGTON  2320   80     220/  7/ 25   N/A
ATWATER BUOY     2300   73 45  210/ 17/ 21   N/A
MILWAUKEE LAKESH 2300   76     220/ 16/ 21   N/A
S MID LAKE BUOY  2350   48 38  200/ 10/ 12   N/A     1/ 4
$$

TC  - TEMPERATURE IN CELSIUS
VSB - VISIBILITY IN STATUTE MILES
WCI - WIND CHILL INDEX
HX  - HEAT INDEX



USA.gov is the U.S. government's official web portal to all federal, state and local government web resources and services.